METEOR 1-11

Satellite information

Favourite Embed

Satellite Type and Status

PAYLOADIN ORBIT

Key statistics

Satellite METEOR 1-11 at a glance.

Uptime

19561

Days in orbit

Revolutions

≈ 14.1

Per day

Orbit

LEO

Low Earth Orbit

Inclination

81.2

Latest

Satellite identification and parameters

Extended collection of information and parameters for METEOR 1-11.

Object identification

Identified? True

Debris? False

Object name: METEOR 1-11

International designator: 1972-022A

Object number (NORAD): 5917

Object ID (CCSDS): 5917

Country: COMMONWEALTH OF INDEPENDENT STATES (CIS)

Current information (Y/N): Y

RCS size: LARGE

Orbital parameters

Period: 102.185 minutes

Inclination: 81.2278 deg

SMA: 7240.223 km

Apoapsis: 892.083 km

Periapsis: 832.093 km

RAAN: 160.2222 deg

Eccentricy: 0.00414284

Argument of periapsis: 291.0992 deg

Mean anomaly: 68.5751 deg

Mean motion: 14.09207121 rev/day

Mean motion (dot): 0.00000206 rev/day2

B* drag term: 0.00011059174 1/REarth

Two-line elements (TLE)

Creation date: Oct. 19, 2025, 2:20 a.m.

Reference frame: TEME

Reference center: EARTH

Epoch: Oct. 18, 2025, 8:58 p.m. UTC

TLE line 0: 0 METEOR 1-11

TLE line 1: 1 05917U 72022A 25291.87366179 .00000206 00000-0 11059-3 0 9998

TLE line 2: 2 05917 81.2278 160.2222 0041428 291.0992 68.5751 14.09207121750458

Live tracking on map

Real-time ground track for satellite METEOR 1-11.

In-orbit conjunctions

A list of the most updated potential collisions computed for object METEOR 1-11.

Target Orbit TCA Probability of collision Miss distance Type
FENGYUN 1C DEB SSO 2025-10-18 17:08:06 0.0001727643 74.0 (m) DEBRIS
COSMOS 1275 DEB LEO 2025-09-24 17:53:22 0.0006158344 398.0 (m) DEBRIS
METEOR 2-17 DEB LEO 2025-07-29 04:47:41 0.0002098671 907.0 (m) DEBRIS
FENGYUN 1C DEB SSO 2025-03-19 04:05:04 0.0001090281 573.0 (m) DEBRIS
SL-16 R/B LEO 2024-12-16 17:01:55 0.0008955286 77.0 (m) ROCKET BODY

Associated space launch

The Meteor-1 series was the first series of Soviet meteorological satellites.

METEOR 1-11 was lifted into orbit during the mission ‘Vostok 8A92M | Meteor-1 11 (23L)’, on board a Vostok 8A92M space rocket.

The launch took place on March 30, 1972, 2:05 p.m. from 41/1.

For more information about the launch, click the button.

Launch to space Vostok 8A92M | Meteor-1 11 (23L)
Vostok 8A92M | Meteor-1 11 (23L)

Agency: N/A

Status: Launch Successful

Launch date: March 30, 1972, 2:05 p.m. UTC

Rocket: Vostok 8A92M

Launch pad: 41/1

Location: Plesetsk Cosmodrome, Russian Federation

...

Latest news about this satellite

There are no fresh news available about this satellite. Check back as we update our databases every day.


Newsletter sign-up

Weekly statistics, charts and insights to help you stay on top of the space industry.